Home > Weather > Mistelbach > Past weeks

Flag for Austria Weather for the Past 2 Weeks in Mistelbach, Lower Austria, Austria

Now
47 °F

Sprinkles. Overcast.


Feels Like: 43 °F
Forecast: 37 / 50 °F
Wind: 8 mph from West

Location: Wien / Hohe Warte

Current Time: Feb 9, 2016 at 7:12:37 AM

Latest Report: Feb 9, 2016 at 5:00 AM


Visibility: 22 mi

Pressure: 29.86 "Hg

Humidity: 80%

Dew point: 41 °F

Location of MistelbachLocation

Historic Weather in Mistelbach — Graph

°F

Mistelbach Temperature Yesterday

Maximum temperature yesterday: 53 °F (at 5:00 PM)
Minimum temperature yesterday: 46 °F (at 8:00 AM)
Average temperature yesterday: 50 °F

High & Low Weather Summary for the Past Weeks

 TemperatureHumidityPressure
High61 °F (Jan 28, 12:00 PM)99% (Jan 27, 6:00 AM)30.42 "Hg (Jan 27, 6:00 AM)
Low31 °F (Jan 27, 6:00 AM)42% (Jan 28, 12:00 PM)29.68 "Hg (Feb 8, 9:00 PM)
Average46 °F75%30.14 "Hg
* Reported Jan 25 5:00 AM — Feb 9 5:00 AM, Mistelbach, Weather by CustomWeather, © 2016

Note: Actual official high and low records may vary slightly from our data, if they occured in-between our weather recording intervals... More about our weather records

Advertising

Mistelbach Weather History for the Previous 24 Hours

 ConditionsComfort  
Time TempWeatherWind HumidityBarometerVisibility
5:00 AM
Tue, Feb 9
47 °FSprinkles. Overcast.8 mph80%29.86 "Hg22 mi
9:00 PM
Mon, Feb 8
51 °FOvercast.2 mph73%29.68 "Hg25 mi
8:00 PM51 °FCool.3 mph71%29.69 "HgN/A
7:00 PM52 °FOvercast.5 mph69%29.69 "Hg28 mi
6:00 PM52 °FOvercast.3 mph70%29.71 "Hg25 mi
5:00 PM53 °FCool.3 mph67%29.73 "HgN/A
4:00 PM52 °FOvercast.2 mph70%29.74 "Hg28 mi
3:00 PM52 °FOvercast.3 mph69%29.76 "Hg2 mi
2:00 PM52 °FPartly sunny.5 mph67%29.79 "Hg19 mi
1:00 PM51 °FPartly sunny.3 mph68%29.83 "Hg19 mi
12:00 PM49 °FPartly sunny.3 mph71%29.88 "Hg16 mi
11:00 AM48 °FOvercast.2 mph70%29.91 "Hg22 mi
10:00 AM48 °FOvercast.2 mph66%29.92 "Hg22 mi
9:00 AM47 °FOvercast.2 mph67%29.94 "Hg28 mi
8:00 AM46 °FOvercast.1 mph69%29.94 "Hg28 mi
7:00 AM47 °FOvercast.3 mph69%29.93 "Hg16 mi
Weather by CustomWeather, © 2016

See weather overviewHow to use our weather pages